[[{"header":{"parameterUnit":"m.s-1","parameterCategory":1,"la1":30.2991,"la2":30.254,"lo1":-89.0895,"lo2":-89.0444,"dy":0.0017,"dx":0.0017,"nx":28,"ny":28,"refTime":"2025-04-17T03:00:00:Z","depth":0,"parameterNumber":2,"parameterNumberName":"U-component_of_WINDS"},"data":[0,0,0,0,0,0,0,0,0,0,0,0,0,0,0,0,0,0,0,0,0,0,0,0,0,0,0,0,0,0,0,0,0,0,0,0,0,0,0,0,0,0,0,0,0,0,0,0,0,0,0,0,0,0,0,0,0,0,-0.7197,-0.7197,0,-0.7237,-0.7238,-0.7238,-0.7267,-0.7268,-0.7268,-0.7268,-0.7311,-0.7312,-0.7313,0,0,0,0,0,0,0,0,0,0,0,0,0,-0.7147,-0.7148,-0.7197,-0.7197,-0.7198,-0.7237,-0.7238,-0.7238,-0.7267,-0.7268,-0.7268,-0.7268,-0.7311,-0.7312,-0.7313,0,0,0,0,0,0,0,0,0,0,0,0,0,-0.7176,-0.7148,-0.7197,-0.7217,-0.7219,-0.7237,-0.7238,-0.7238,-0.7267,-0.7268,-0.7268,-0.7268,-0.7311,-0.7312,-0.7313,-0.7314,0,0,-0.7317,-0.7318,0,0,0,0,0,0,0,0,-0.7175,-0.7178,-0.7213,-0.7216,-0.7218,-0.7247,-0.7236,-0.7264,-0.7267,-0.7249,-0.7268,-0.7268,-0.729,-0.7293,-0.73,-0.7316,-0.7318,-0.7318,-0.7318,-0.7319,-0.7319,0,0,0,0,0,0,0,-0.7172,-0.7176,-0.7213,-0.7214,-0.7217,-0.7225,-0.7229,-0.7241,-0.7267,-0.7251,-0.7253,-0.7257,-0.7291,-0.7298,-0.7301,-0.7319,-0.7318,-0.7319,-0.732,-0.732,-0.734,-0.734,0,0,0,0,0,0,-0.7167,-0.7175,-0.7211,-0.7214,-0.7197,-0.7225,-0.723,-0.7238,-0.7267,-0.7272,-0.7257,-0.7258,-0.7296,-0.7299,-0.7303,-0.7307,-0.7319,-0.732,-0.7321,-0.734,-0.734,-0.734,0,0,0,0,0,0,-0.7166,-0.717,-0.721,-0.7195,-0.7201,-0.7226,-0.7234,-0.7238,-0.7246,-0.7272,-0.7276,-0.7259,-0.7296,-0.7301,-0.7311,-0.7309,-0.7321,-0.7322,-0.7341,-0.734,-0.734,-0.7315,0,0,0,0,0,0,-0.7164,-0.7169,-0.717,-0.7195,-0.7201,-0.7217,-0.7234,-0.7239,-0.7248,-0.725,-0.7275,-0.728,-0.7297,-0.7309,-0.7313,-0.7311,-0.7323,-0.7341,-0.734,-0.734,-0.7316,-0.7313,-0.7311,0,0,0,0,0,-0.7162,-0.7161,-0.7169,-0.7174,-0.7202,-0.7217,-0.7221,-0.724,-0.7247,-0.7248,-0.7265,-0.7279,-0.7308,-0.731,-0.7314,-0.7313,-0.7341,-0.7341,-0.734,-0.7317,-0.7314,-0.7311,0,0,0,0,0,0,-0.7136,-0.7165,-0.7174,-0.7181,-0.7196,-0.7222,-0.7224,-0.7236,-0.725,-0.7252,-0.7276,-0.7281,-0.729,-0.7302,-0.7304,-0.7316,-0.7327,-0.7327,-0.7308,-0.7305,-0.7303,-0.73,-0.7324,0,0,0,0,0,-0.713,-0.714,-0.7165,-0.7168,-0.7175,-0.7198,-0.7205,-0.7219,-0.7236,-0.7243,-0.726,-0.7277,-0.729,-0.7298,-0.7311,-0.7318,-0.7324,-0.7319,-0.7316,-0.7314,-0.7315,-0.732,-0.7318,-0.7337,-0.7337,-0.7337,0,0,-0.712,-0.7137,-0.7141,-0.7163,-0.7177,-0.7187,-0.7203,-0.7213,-0.7221,-0.7244,-0.7256,-0.7269,-0.7289,-0.7298,-0.7303,-0.7309,-0.7311,-0.7314,-0.7312,-0.7313,-0.7319,-0.7317,-0.7316,-0.7337,-0.7337,-0.7337,0,0,-0.7106,-0.7119,-0.7124,-0.7137,-0.7157,-0.7172,-0.7173,-0.7197,-0.7207,-0.7218,-0.7237,-0.7247,-0.7268,-0.7282,-0.7292,-0.7284,-0.7298,-0.7287,-0.7276,-0.7281,-0.7279,-0.7278,-0.7276,-0.7275,-0.7287,-0.7287,-0.7287,0,-0.7091,-0.7106,-0.7125,-0.7134,-0.7143,-0.7165,-0.717,-0.7182,-0.7206,-0.7212,-0.7218,-0.7246,-0.7261,-0.7274,-0.7272,-0.7279,-0.7282,-0.7285,-0.7278,-0.7277,-0.7276,-0.7274,-0.7274,-0.7286,-0.7286,-0.7286,-0.7286,0,-0.7087,-0.7097,-0.7098,-0.712,-0.7129,-0.7136,-0.7158,-0.7165,-0.7178,-0.7193,-0.7205,-0.7223,-0.7241,-0.7245,-0.7258,-0.726,-0.7263,-0.7273,-0.7284,-0.7273,-0.7272,-0.7271,-0.7284,-0.7285,-0.7285,-0.7285,0,0,-0.7058,-0.709,-0.709,-0.7101,-0.7124,-0.7133,-0.7141,-0.7158,-0.7165,-0.718,-0.7188,-0.7206,-0.7216,-0.7227,-0.7241,-0.7245,-0.7239,-0.7255,-0.7256,-0.7252,-0.7244,-0.7237,-0.7236,-0.7248,-0.7248,-0.7248,-0.7242,0,-0.7048,-0.7064,-0.7082,-0.7091,-0.7101,-0.7122,-0.7129,-0.7145,-0.7159,-0.717,-0.7186,-0.7198,-0.7209,-0.7216,-0.7221,-0.7239,-0.7238,-0.7239,-0.7257,-0.7257,-0.7252,-0.7235,-0.7228,-0.7222,-0.7242,-0.7242,-0.7242,0,-0.7039,-0.7053,-0.7064,-0.7087,-0.7092,-0.7098,-0.7116,-0.7126,-0.7144,-0.7154,-0.7167,-0.7182,-0.7193,-0.7202,-0.7218,-0.7218,-0.7227,-0.7236,-0.7236,-0.724,-0.7249,-0.7239,-0.722,-0.722,-0.7241,-0.7241,-0.7241,0,-0.7018,-0.704,-0.7049,-0.7057,-0.7084,-0.7088,-0.71,-0.7119,-0.7128,-0.7144,-0.715,-0.7167,-0.7176,-0.7189,-0.7208,-0.7213,-0.7222,-0.7233,-0.7232,-0.7232,-0.7234,-0.7234,-0.7217,-0.7237,-0.7237,-0.7237,-0.7237,0,-0.7007,-0.7013,-0.704,-0.7046,-0.7054,-0.7074,-0.7081,-0.7095,-0.7112,-0.7121,-0.714,-0.7148,-0.7173,-0.7185,-0.7201,-0.7212,-0.7216,-0.7225,-0.7229,-0.7224,-0.7223,-0.723,-0.7231,-0.7237,-0.7237,-0.7237,-0.7237,0,-0.6985,-0.7004,-0.7015,-0.704,-0.7046,-0.705,-0.7072,-0.7079,-0.7094,-0.7105,-0.7109,-0.7133,-0.7148,-0.7169,-0.719,-0.7201,-0.721,-0.7216,-0.7204,-0.7207,-0.7205,-0.7205,-0.7193,-0.7193,-0.7212,-0.7212,-0.7212,0,-0.6977,-0.6982,-0.7007,-0.7014,-0.7025,-0.7036,-0.7046,-0.7067,-0.7076,-0.7098,-0.7102,-0.7118,-0.7132,-0.7156,-0.7175,-0.7192,-0.7199,-0.7194,-0.7202,-0.7197,-0.7201,-0.72,-0.7201,-0.7192,-0.7192,-0.7192,-0.7192,0,-0.696,-0.6969,-0.6982,-0.6998,-0.7009,-0.7022,-0.7037,-0.7042,-0.7066,-0.7076,-0.7091,-0.7102,-0.7124,-0.714,-0.7159,-0.7172,-0.7186,-0.7189,-0.719,-0.7185,-0.7178,-0.7183,-0.72,-0.7189,-0.719,-0.719,-0.719,-0.719,-0.6946,-0.6952,-0.697,-0.6984,-0.6997,-0.701,-0.7018,-0.7033,-0.7046,-0.7065,-0.7077,-0.7092,-0.7111,-0.7138,-0.7151,-0.7163,-0.7169,-0.717,-0.717,-0.717,-0.7169,-0.7175,-0.7167,-0.7167,-0.7167,-0.7167,-0.7167,0,-0.6932,-0.6944,-0.6957,-0.6976,-0.6987,-0.6998,-0.7015,-0.7024,-0.7037,-0.7053,-0.7066,-0.7084,-0.71,-0.7121,-0.7139,-0.7145,-0.7152,-0.7149,-0.7149,-0.7152,-0.7163,-0.7161,-0.7143,-0.7143,-0.7143,-0.7143,-0.7143,-0.7143,-0.6925,-0.6936,-0.6947,-0.6964,-0.6977,-0.6992,-0.7,-0.7013,-0.7026,-0.7045,-0.7058,-0.7071,-0.709,-0.7109,-0.7125,-0.713,-0.7137,-0.7132,-0.714,-0.7149,-0.7151,-0.7153,-0.7152,-0.7133,-0.7133,-0.7129,-0.7128,-0.7128]},{"header":{"parameterUnit":"m.s-1","parameterCategory":1,"la1":30.2991,"la2":30.254,"lo1":-89.0895,"lo2":-89.0444,"dy":0.0017,"dx":0.0017,"nx":28,"ny":28,"refTime":"2025-04-17T03:00:00:Z","depth":0,"parameterNumber":3,"parameterNumberName":"V-component_of_WINDS"},"data":[0,0,0,0,0,0,0,0,0,0,0,0,0,0,0,0,0,0,0,0,0,0,0,0,0,0,0,0,0,0,0,0,0,0,0,0,0,0,0,0,0,0,0,0,0,0,0,0,0,0,0,0,0,0,0,0,0,0,0.8795,0.8795,0,0.8776,0.8776,0.8776,0.8708,0.8706,0.8704,0.8703,0.8684,0.8685,0.8686,0,0,0,0,0,0,0,0,0,0,0,0,0,0.8772,0.8773,0.8796,0.8795,0.8795,0.8776,0.8776,0.8776,0.8708,0.8706,0.8704,0.8702,0.8684,0.8685,0.8686,0,0,0,0,0,0,0,0,0,0,0,0,0,0.8771,0.8773,0.8796,0.8759,0.8755,0.8776,0.8776,0.8776,0.8708,0.8706,0.8704,0.8701,0.8683,0.8685,0.8686,0.8741,0,0,0.869,0.8691,0,0,0,0,0,0,0,0,0.8771,0.8772,0.8764,0.8761,0.8757,0.8742,0.8761,0.8764,0.8709,0.8726,0.8703,0.87,0.8705,0.8705,0.8706,0.874,0.874,0.869,0.8691,0.8692,0.8692,0,0,0,0,0,0,0,0.8771,0.8772,0.8788,0.8764,0.876,0.8743,0.874,0.8761,0.8729,0.8724,0.8719,0.8718,0.8703,0.8705,0.8705,0.8739,0.869,0.8692,0.8693,0.8693,0.8816,0.8819,0,0,0,0,0,0,0.8776,0.8773,0.8789,0.8787,0.8759,0.8745,0.8742,0.8749,0.8729,0.8723,0.872,0.8715,0.8704,0.8704,0.8704,0.8767,0.8692,0.8693,0.8694,0.8814,0.8817,0.8819,0,0,0,0,0,0,0.8776,0.8779,0.8789,0.8779,0.8779,0.8748,0.8757,0.875,0.8752,0.8725,0.8719,0.8728,0.8702,0.8702,0.8732,0.8765,0.8694,0.8695,0.8811,0.8815,0.8818,0.8892,0,0,0,0,0,0,0.8776,0.8779,0.88,0.878,0.878,0.8818,0.8759,0.8751,0.8755,0.8748,0.8731,0.8726,0.87,0.873,0.8734,0.8766,0.8696,0.8808,0.8813,0.8817,0.8887,0.8898,0.8908,0,0,0,0,0,0.8775,0.8822,0.8801,0.8804,0.8805,0.882,0.882,0.8789,0.8758,0.8778,0.8761,0.8727,0.8761,0.8734,0.8737,0.877,0.8806,0.8811,0.8817,0.8882,0.8896,0.8908,0,0,0,0,0,0,0.8848,0.8819,0.8795,0.8837,0.8832,0.8809,0.8834,0.8805,0.8808,0.8801,0.8762,0.8759,0.8794,0.8785,0.8756,0.8822,0.8778,0.8784,0.8826,0.8839,0.885,0.8851,0.8697,0,0,0,0,0,0.8868,0.8883,0.8857,0.8896,0.8894,0.8865,0.887,0.8846,0.8839,0.8836,0.8821,0.8815,0.8824,0.8831,0.8838,0.8885,0.888,0.8909,0.892,0.8928,0.8934,0.8957,0.8969,0.8837,0.8837,0.8837,0,0,0.8912,0.8898,0.8909,0.891,0.8903,0.8919,0.8863,0.8882,0.8893,0.8839,0.8866,0.8855,0.8846,0.8884,0.89,0.8877,0.8969,0.8935,0.8942,0.8944,0.8964,0.8976,0.8988,0.8841,0.884,0.884,0,0,0.8998,0.8989,0.902,0.9014,0.9003,0.8983,0.8991,0.8972,0.8962,0.8988,0.8947,0.896,0.8977,0.8971,0.8971,0.9054,0.9023,0.9057,0.9112,0.9135,0.9145,0.9154,0.9183,0.9193,0.9063,0.9064,0.9064,0,0.9053,0.9075,0.904,0.9061,0.9062,0.9013,0.9044,0.904,0.9033,0.9034,0.9009,0.9028,0.9019,0.9054,0.9074,0.9076,0.9083,0.9059,0.9146,0.9155,0.9163,0.919,0.9201,0.9068,0.9067,0.9067,0.9066,0,0.9142,0.9158,0.9184,0.9178,0.9182,0.9208,0.9176,0.9185,0.916,0.9143,0.9169,0.9156,0.9159,0.9166,0.9143,0.9198,0.9184,0.9153,0.9108,0.918,0.9205,0.9215,0.9074,0.9072,0.9071,0.907,0,0,0.9275,0.9247,0.9257,0.9253,0.9237,0.9249,0.9272,0.9274,0.9282,0.9278,0.9296,0.9311,0.9282,0.9281,0.9257,0.9277,0.9342,0.9243,0.9242,0.9261,0.9401,0.9424,0.9437,0.9321,0.9323,0.9324,0.9402,0,0.9356,0.9394,0.9363,0.9407,0.942,0.9373,0.9393,0.9385,0.9369,0.9378,0.936,0.9371,0.9332,0.9331,0.9349,0.9331,0.937,0.9324,0.9337,0.9338,0.9341,0.945,0.9474,0.9548,0.9411,0.9413,0.9414,0,0.9456,0.9456,0.9501,0.9481,0.9485,0.9504,0.9503,0.9512,0.9502,0.9489,0.9488,0.9457,0.9478,0.9434,0.9462,0.9432,0.9435,0.9427,0.9429,0.9429,0.938,0.9452,0.9571,0.9582,0.9429,0.9428,0.9427,0,0.9547,0.9558,0.9586,0.9584,0.9561,0.9575,0.9567,0.9554,0.9557,0.9556,0.9557,0.9559,0.956,0.9562,0.9533,0.9504,0.9564,0.9518,0.9553,0.9554,0.9568,0.9567,0.9689,0.9571,0.9571,0.9571,0.9571,0,0.9641,0.967,0.9626,0.9644,0.9674,0.9638,0.9669,0.9656,0.9645,0.9658,0.9618,0.9631,0.9592,0.9601,0.9578,0.9604,0.9605,0.9595,0.9588,0.9598,0.9599,0.96,0.9593,0.9574,0.9573,0.9573,0.9572,0,0.9748,0.972,0.9747,0.9723,0.9717,0.9741,0.972,0.9735,0.9715,0.9733,0.9735,0.9705,0.9713,0.9684,0.9688,0.9673,0.9711,0.9696,0.9714,0.9709,0.9746,0.9743,0.9871,0.9886,0.976,0.9761,0.9762,0,0.9809,0.983,0.9808,0.9814,0.9807,0.9817,0.9819,0.9784,0.9788,0.9777,0.9793,0.9798,0.98,0.9816,0.9795,0.9797,0.9782,0.9827,0.9782,0.9791,0.9782,0.9781,0.9782,0.9836,0.9838,0.9839,0.984,0,0.9921,0.9906,0.9911,0.991,0.9914,0.9912,0.9908,0.9915,0.9877,0.9883,0.9891,0.9893,0.9896,0.9902,0.9899,0.989,0.9859,0.9854,0.9862,0.9872,0.9881,0.9876,0.9739,0.9851,0.985,0.9849,0.9849,0.9848,1.0006,1.0022,1.0009,1.0015,1.0008,1.0004,1.0016,0.9998,1.0004,1.0003,0.9982,0.9994,0.9982,0.9976,0.997,0.9978,0.9957,0.997,0.9972,0.9976,0.9982,0.988,0.9978,0.9978,0.9977,0.9977,0.9977,0,1.0115,1.0104,1.011,1.0104,1.0109,1.0079,1.0072,1.0078,1.0089,1.008,1.0083,1.0091,1.0096,1.0074,1.0076,1.0087,1.0072,1.0088,1.0087,1.0085,1.0001,0.9993,1.01,1.01,1.01,1.01,1.01,1.01,1.0173,1.0198,1.0181,1.0201,1.0189,1.02,1.0199,1.0195,1.0188,1.0199,1.0202,1.0188,1.0174,1.0174,1.0177,1.017,1.0172,1.0193,1.0182,1.0103,1.0091,1.008,1.0072,1.0194,1.0194,1.0265,1.0266,1.0266]}]]